Weather History for Provincetown, MA

Change the Weather History Date:

Thursday, September 19, 2013

  Actual Average Record
Temperature  
Mean Temperature 62 °F -  
Max Temperature 71 °F 67 °F 79 °F (1951)
Min Temperature 53 °F 56 °F 35 °F (2014)
Degree Days  
Heating Degree Days 3    
Growing Degree Days 12 (Base 50)    
Moisture  
Dew Point 52 °F    
Average Humidity 72    
Maximum Humidity 94    
Minimum Humidity 43    
Precipitation  
Precipitation 0.02 in - - ()
Sea Level Pressure  
Sea Level Pressure 30.11 in    
Wind  
Wind Speed 8 mph (WSW)    
Max Wind Speed 10 mph    
Max Gust Speed 16 mph    
Visibility 10 miles    
Events      
Averages and records for this station are not official NWS values.
T = Trace of Precipitation, MM = Missing Value Source: NWS Daily Summary

Daily Weather History Graph

Daily Weather History Graph

Search for Another Location

Airport:

Trip Planner

Search our weather history database for the weather conditions in past years. The results will help you decide how hot, cold, wet, or windy it might be!

Date:

Astronomy

Sep. 19, 2013 Rise Set
Actual Time 6:25 AM EDT 6:43 PM EDT
Civil Twilight 5:57 AM EDT 7:10 PM EDT
Nautical Twilight 5:24 AM EDT 7:43 PM EDT
Astronomical Twilight 4:50 AM EDT 8:17 PM EDT
Moon 6:38 PM EDT (9/19) 6:31 AM EDT (9/19)
Length of Visible Light 13h 13m
Length of Day
12h 17m
Full, 100% of the Moon is Illuminated
Sep 19
Full
Sep 26
Last Quarter
Oct 4
New
Oct 11
First Quarter
Oct 18
Full

Hourly Weather History & Observations

Time (EDT) Temp. Dew Point Humidity Pressure Visibility Wind Dir Wind Speed Gust Speed Precip Events Conditions
12:15 AM 55.4 °F 48.2 °F 77% 30.15 in 10.0 mi WSW 8.1 mph - N/A   Clear
12:35 AM 57.2 °F 48.2 °F 72% 30.15 in 10.0 mi WSW 9.2 mph - N/A   Clear
12:55 AM 57.2 °F 48.2 °F 72% 30.15 in 10.0 mi WSW 10.4 mph - N/A   Clear
1:15 AM 57.2 °F 50.0 °F 77% 30.15 in 10.0 mi WSW 10.4 mph - N/A   Clear
1:35 AM 57.2 °F 50.0 °F 77% 30.15 in 10.0 mi WSW 9.2 mph - N/A   Clear
1:55 AM 57.2 °F 51.8 °F 82% 30.15 in 10.0 mi WSW 10.4 mph 16.1 mph N/A   Clear
2:15 AM 57.2 °F 51.8 °F 82% 30.14 in 10.0 mi WSW 10.4 mph - N/A   Clear
2:35 AM 57.2 °F 51.8 °F 82% 30.14 in 10.0 mi WSW 9.2 mph 16.1 mph N/A   Clear
2:55 AM 57.2 °F 51.8 °F 82% 30.13 in 10.0 mi WSW 8.1 mph - N/A   Clear
3:15 AM 55.4 °F 51.8 °F 88% 30.13 in 10.0 mi WSW 9.2 mph - N/A   Clear
3:35 AM 57.2 °F 51.8 °F 82% 30.13 in 10.0 mi West 9.2 mph - N/A   Clear
3:55 AM 57.2 °F 51.8 °F 82% 30.12 in 10.0 mi WSW 10.4 mph - N/A   Clear
4:15 AM 55.4 °F 51.8 °F 88% 30.12 in 10.0 mi WSW 9.2 mph - N/A   Clear
4:35 AM 55.4 °F 51.8 °F 88% 30.12 in 10.0 mi WSW 8.1 mph - 0.01 in   Clear
4:55 AM 55.4 °F 50.0 °F 82% 30.13 in 10.0 mi WSW 9.2 mph - 0.01 in   Clear
5:15 AM 55.4 °F 51.8 °F 88% 30.12 in 10.0 mi WSW 8.1 mph - 0.01 in   Clear
5:35 AM 55.4 °F 51.8 °F 88% 30.12 in 10.0 mi WSW 8.1 mph - 0.01 in   Clear
5:55 AM 55.4 °F 51.8 °F 88% 30.12 in 10.0 mi West 8.1 mph - 0.01 in   Clear
6:15 AM 55.4 °F 51.8 °F 88% 30.13 in 10.0 mi West 8.1 mph - N/A   Clear
6:35 AM 53.6 °F 50.0 °F 88% 30.13 in 10.0 mi West 8.1 mph - N/A   Clear
6:55 AM 55.4 °F 51.8 °F 88% 30.13 in 10.0 mi West 5.8 mph - N/A   Clear
7:15 AM 55.4 °F 51.8 °F 88% 30.13 in 10.0 mi West 8.1 mph - N/A   Clear
7:35 AM 57.2 °F 51.8 °F 82% 30.14 in 10.0 mi West 8.1 mph - N/A   Clear
7:55 AM 57.2 °F 51.8 °F 82% 30.14 in 10.0 mi West 8.1 mph - N/A   Clear
8:15 AM 59.0 °F 51.8 °F 77% 30.14 in 10.0 mi WNW 6.9 mph - N/A   Clear
8:35 AM 60.8 °F 51.8 °F 72% 30.14 in 10.0 mi WNW 6.9 mph - N/A   Clear
8:55 AM 60.8 °F 51.8 °F 72% 30.14 in 10.0 mi WNW 6.9 mph - N/A   Clear
9:15 AM 60.8 °F 51.8 °F 72% 30.14 in 10.0 mi WNW 8.1 mph - N/A   Clear
9:35 AM 60.8 °F 51.8 °F 72% 30.14 in 10.0 mi West 5.8 mph - N/A   Clear
9:55 AM 62.6 °F 51.8 °F 68% 30.14 in 10.0 mi West 5.8 mph - N/A   Clear
10:15 AM 62.6 °F 51.8 °F 68% 30.14 in 10.0 mi WNW 6.9 mph - N/A   Clear
10:35 AM 64.4 °F 51.8 °F 64% 30.14 in 10.0 mi WNW 5.8 mph - N/A   Clear
10:55 AM 64.4 °F 51.8 °F 64% 30.14 in 10.0 mi West 5.8 mph - N/A   Clear
11:15 AM 64.4 °F 51.8 °F 64% 30.13 in 10.0 mi West 4.6 mph - N/A   Clear
11:35 AM 64.4 °F 51.8 °F 64% 30.13 in 10.0 mi NNW 5.8 mph - N/A   Clear
11:55 AM 64.4 °F 51.8 °F 64% 30.13 in 10.0 mi NNW 4.6 mph - N/A   Clear
12:15 PM 64.4 °F 51.8 °F 64% 30.13 in 10.0 mi NNW 5.8 mph - N/A   Clear
12:35 PM 64.4 °F 51.8 °F 64% 30.12 in 10.0 mi NNW 5.8 mph - N/A   Clear
12:55 PM 64.4 °F 51.8 °F 64% 30.12 in 10.0 mi NNW 6.9 mph - N/A   Clear
1:15 PM 66.2 °F 51.8 °F 60% 30.12 in 10.0 mi NNW 5.8 mph - N/A   Clear
1:35 PM 66.2 °F 51.8 °F 60% 30.11 in 10.0 mi NNW 4.6 mph - N/A   Clear
1:55 PM 68.0 °F 48.2 °F 49% 30.10 in 10.0 mi Calm Calm - N/A   Clear
2:15 PM 68.0 °F 50.0 °F 52% 30.10 in 10.0 mi NNW 6.9 mph - N/A   Clear
2:35 PM 66.2 °F 51.8 °F 60% 30.10 in 10.0 mi WNW 4.6 mph - N/A   Clear
2:55 PM 68.0 °F 50.0 °F 52% 30.09 in 10.0 mi WNW 3.5 mph - N/A   Clear
3:15 PM 71.6 °F 48.2 °F 43% 30.08 in 10.0 mi WSW 4.6 mph - N/A   Clear
3:35 PM 71.6 °F 48.2 °F 43% 30.07 in 10.0 mi Calm Calm - N/A   Clear
3:55 PM 71.6 °F 48.2 °F 43% 30.07 in 10.0 mi SW 4.6 mph - N/A   Clear
4:15 PM 71.6 °F 48.2 °F 43% 30.07 in 10.0 mi Calm Calm - N/A   Clear
4:35 PM 71.6 °F 50.0 °F 46% 30.06 in 10.0 mi South 3.5 mph - N/A   Clear
4:55 PM 69.8 °F 50.0 °F 49% 30.07 in 10.0 mi NNE 4.6 mph - N/A   Clear
5:15 PM 66.2 °F 53.6 °F 64% 30.07 in 10.0 mi NNE 4.6 mph - N/A   Clear
5:35 PM 66.2 °F 53.6 °F 64% 30.06 in 10.0 mi Calm Calm - N/A   Clear
5:55 PM 68.0 °F 51.8 °F 56% 30.06 in 10.0 mi SSW 3.5 mph - N/A   Clear
6:15 PM 66.2 °F 51.8 °F 60% 30.06 in 10.0 mi SSW 4.6 mph - N/A   Clear
6:35 PM 64.4 °F 50.0 °F 59% 30.06 in 10.0 mi South 3.5 mph - N/A   Clear
6:55 PM 62.6 °F 48.2 °F 59% 30.06 in 10.0 mi South 5.8 mph - N/A   Clear
7:15 PM 62.6 °F 51.8 °F 68% 30.06 in 10.0 mi South 8.1 mph - N/A   Clear
7:35 PM 62.6 °F 53.6 °F 72% 30.06 in 10.0 mi South 6.9 mph - N/A   Clear
7:55 PM 62.6 °F 55.4 °F 77% 30.07 in 10.0 mi SSW 8.1 mph - N/A   Clear
8:15 PM 62.6 °F 55.4 °F 77% 30.08 in 10.0 mi SW 8.1 mph - N/A   Clear
8:35 PM 60.8 °F 57.2 °F 88% 30.08 in 10.0 mi SW 8.1 mph - N/A   Clear
8:55 PM 60.8 °F 57.2 °F 88% 30.08 in 10.0 mi SW 6.9 mph - N/A   Clear
9:15 PM 60.8 °F 55.4 °F 82% 30.08 in 10.0 mi SW 6.9 mph - N/A   Clear
9:35 PM 60.8 °F 55.4 °F 82% 30.07 in 10.0 mi SSW 6.9 mph - N/A   Clear
9:55 PM 60.8 °F 55.4 °F 82% 30.08 in 10.0 mi SW 6.9 mph - N/A   Clear
10:15 PM 57.2 °F 55.4 °F 94% 30.08 in 10.0 mi SW 6.9 mph - N/A   Clear
10:35 PM 57.2 °F 53.6 °F 88% 30.08 in 10.0 mi WSW 8.1 mph - N/A   Clear
10:55 PM 57.2 °F 53.6 °F 88% 30.07 in 10.0 mi WSW 5.8 mph - N/A   Clear
11:15 PM 57.2 °F 53.6 °F 88% 30.07 in 10.0 mi WSW 8.1 mph - N/A   Clear
11:35 PM 57.2 °F 53.6 °F 88% 30.07 in 10.0 mi WSW 8.1 mph - N/A   Clear
11:55 PM 57.2 °F 53.6 °F 88% 30.07 in 10.0 mi WSW 6.9 mph - N/A   Clear